Angleton, TX

10:12 AM CDT on May 27, 2017 (GMT -0500)
Brazoria County

Weather History for KLBX - December, 2012

Change the Weather History Date:

Thursday, December 6, 2012

  Actual Average Record
Temperature  
Mean Temperature 62 °F -  
Max Temperature 73 °F 63 °F 81 °F (1998)
Min Temperature 50 °F 47 °F 32 °F (1999)
Degree Days  
Heating Degree Days 4    
Growing Degree Days 12 (Base 50)    
Moisture  
Dew Point 57 °F    
Average Humidity 92    
Maximum Humidity 100    
Minimum Humidity 66    
Precipitation  
Precipitation 0.00 in - - ()
Sea Level Pressure  
Sea Level Pressure 29.96 in    
Wind  
Wind Speed 2 mph (East)    
Max Wind Speed 12 mph    
Max Gust Speed 16 mph    
Visibility 4 miles    
Events Fog    
Averages and records for this station are not official NWS values.
T = Trace of Precipitation, MM = Missing Value Source: NWS Daily Summary

Daily Weather History Graph

Daily Weather History Graph

Search for Another Location

Airport or City:

Trip Planner

Search our weather history database for the weather conditions in past years. The results will help you decide how hot, cold, wet, or windy it might be!

Date:

Astronomy

Dec. 06, 2012 Rise Set
Actual Time 7:02 AM CST 5:23 PM CST
Civil Twilight 6:36 AM CST 5:49 PM CST
Nautical Twilight 6:07 AM CST 6:19 PM CST
Astronomical Twilight 5:38 AM CST 6:48 PM CST
Moon No Moon Rise 12:22 PM CST (12/6)
Length of Visible Light 11h 13m
Length of Day
10h 21m
Waning Gibbous, 49% of the Moon is Illuminated
Dec 6
Waning Gibbous
Dec 13
New
Dec 19
First Quarter
Dec 28
Full
Jan 4
Last Quarter

Hourly Weather History & Observations

Time (CST) Temp. Dew Point Humidity Pressure Visibility Wind Dir Wind Speed Gust Speed Precip Events Conditions
12:07 AM 50.0 °F 50.0 °F 100% 30.04 in 0.2 mi Calm Calm - N/A Fog Fog
12:27 AM 50.0 °F 50.0 °F 100% 30.03 in 0.2 mi Calm Calm - N/A Fog Fog
12:53 AM 50.0 °F 48.9 °F 96% 30.03 in 0.5 mi Calm Calm - N/A Fog Fog
1:19 AM 50.0 °F 50.0 °F 100% 30.03 in 0.2 mi Calm Calm - N/A Fog Fog
1:53 AM 51.1 °F 50.0 °F 96% 30.02 in 0.2 mi Calm Calm - N/A Fog Fog
2:00 AM 51.8 °F 51.8 °F 100% 30.02 in 0.8 mi Calm Calm - N/A   Overcast
2:04 AM 51.8 °F 51.8 °F 100% 30.02 in 2.0 mi Calm Calm - N/A   Overcast
2:13 AM 51.8 °F 51.8 °F 100% 30.02 in 4.0 mi Calm Calm - N/A   Overcast
2:17 AM 51.8 °F 51.8 °F 100% 30.02 in 1.8 mi Calm Calm - N/A   Overcast
2:42 AM 51.8 °F 51.8 °F 100% 30.02 in 0.8 mi Calm Calm - N/A   Overcast
2:53 AM 52.0 °F 51.1 °F 97% 30.02 in 0.5 mi Calm Calm - N/A Fog Fog
3:03 AM 51.8 °F 51.8 °F 100% 30.01 in 0.2 mi Calm Calm - N/A Fog Fog
3:53 AM 52.0 °F 52.0 °F 100% 30.00 in 0.2 mi Calm Calm - N/A Fog Fog
4:53 AM 50.0 °F 48.9 °F 96% 29.99 in 0.2 mi Calm Calm - N/A Fog Fog
5:53 AM 51.1 °F 50.0 °F 96% 29.98 in 0.2 mi Calm Calm - N/A Fog Fog
6:53 AM 53.1 °F 52.0 °F 96% 29.99 in 0.2 mi NNE 3.5 mph - N/A Fog Fog
7:21 AM 51.8 °F 51.8 °F 100% 29.99 in 0.2 mi NE 4.6 mph - N/A Fog Fog
7:53 AM 55.0 °F 54.0 °F 96% 29.99 in 0.2 mi NNE 4.6 mph - N/A Fog Fog
8:04 AM 55.4 °F 55.4 °F 100% 30.00 in 0.5 mi NNE 3.5 mph - N/A Fog Fog
8:12 AM 57.2 °F 57.2 °F 100% 30.00 in 2.0 mi NNE 4.6 mph - N/A   Mostly Cloudy
8:20 AM 59.0 °F 57.2 °F 94% 30.00 in 5.0 mi NE 4.6 mph - N/A   Scattered Clouds
8:53 AM 63.0 °F 61.0 °F 93% 30.01 in 10.0 mi ENE 3.5 mph - N/A   Clear
9:37 AM 64.4 °F 62.6 °F 94% 30.02 in 10.0 mi East 5.8 mph - N/A   Overcast
9:53 AM 66.0 °F 63.0 °F 90% 30.01 in 10.0 mi East 4.6 mph - N/A   Mostly Cloudy
10:07 AM 68.0 °F 62.6 °F 83% 30.01 in 10.0 mi Variable 5.8 mph - N/A   Mostly Cloudy
10:16 AM 68.0 °F 62.6 °F 83% 30.01 in 10.0 mi East 5.8 mph - N/A   Scattered Clouds
10:30 AM 69.8 °F 62.6 °F 78% 30.01 in 10.0 mi ESE 5.8 mph - N/A   Mostly Cloudy
10:53 AM 69.1 °F 62.1 °F 78% 30.00 in 10.0 mi East 6.9 mph - N/A   Overcast
11:53 AM 69.1 °F 61.0 °F 75% 29.97 in 10.0 mi ESE 5.8 mph - N/A   Scattered Clouds
12:53 PM 71.1 °F 61.0 °F 70% 29.94 in 10.0 mi East 6.9 mph - N/A   Scattered Clouds
1:31 PM 71.6 °F 60.8 °F 69% 29.92 in 10.0 mi East 8.1 mph - N/A   Overcast
1:53 PM 73.0 °F 61.0 °F 66% 29.91 in 10.0 mi SE 8.1 mph - N/A   Mostly Cloudy
2:00 PM 71.6 °F 62.6 °F 73% 29.91 in 10.0 mi SE 11.5 mph 16.1 mph N/A   Mostly Cloudy
2:15 PM 71.6 °F 60.8 °F 69% 29.90 in 10.0 mi ESE 9.2 mph - N/A   Mostly Cloudy
2:53 PM 71.1 °F 62.1 °F 73% 29.91 in 10.0 mi ESE 10.4 mph - N/A   Mostly Cloudy
3:43 PM 69.8 °F 62.6 °F 78% 29.90 in 10.0 mi ESE 8.1 mph - N/A   Partly Cloudy
3:53 PM 70.0 °F 62.1 °F 76% 29.90 in 10.0 mi East 10.4 mph - N/A   Scattered Clouds
4:17 PM 69.8 °F 62.6 °F 78% 29.90 in 10.0 mi East 6.9 mph - N/A   Mostly Cloudy
4:25 PM 69.8 °F 62.6 °F 78% 29.90 in 10.0 mi ESE 9.2 mph - N/A   Scattered Clouds
4:53 PM 66.9 °F 62.1 °F 84% 29.91 in 10.0 mi ESE 8.1 mph - N/A   Partly Cloudy
5:53 PM 64.9 °F 61.0 °F 87% 29.90 in 10.0 mi ESE 6.9 mph - N/A   Partly Cloudy
6:53 PM 63.0 °F 61.0 °F 93% 29.90 in 10.0 mi East 5.8 mph - N/A   Clear
8:29 PM 59.0 °F 57.2 °F 94% 29.91 in 2.0 mi Calm Calm - N/A   Partly Cloudy
8:31 PM 59.0 °F 57.2 °F 94% 29.90 in 1.0 mi Calm Calm - N/A   Mist
8:37 PM 57.2 °F 57.2 °F 100% 29.91 in 0.2 mi Calm Calm - N/A Fog Fog
8:46 PM 57.2 °F 57.2 °F 100% 29.91 in 0.8 mi Calm Calm - N/A   Mist
8:53 PM 57.9 °F 57.0 °F 97% 29.91 in 0.8 mi Calm Calm - N/A   Mist
9:36 PM 60.8 °F 59.0 °F 94% 29.90 in 1.2 mi Calm Calm - N/A   Scattered Clouds
9:43 PM 57.2 °F 57.2 °F 100% 29.90 in 0.8 mi Calm Calm - N/A   Mist
9:53 PM 57.9 °F 57.9 °F 100% 29.90 in 0.2 mi Calm Calm - N/A Fog Fog
10:11 PM 57.2 °F 57.2 °F 100% 29.90 in 0.5 mi Calm Calm - N/A Fog Fog
10:22 PM 57.2 °F 57.2 °F 100% 29.90 in 0.2 mi Calm Calm - N/A Fog Fog
10:30 PM 57.2 °F 57.2 °F 100% 29.90 in 0.5 mi Calm Calm - N/A Fog Fog
10:42 PM 55.4 °F 55.4 °F 100% 29.90 in 0.2 mi Calm Calm - N/A Fog Fog
10:53 PM 55.0 °F 55.0 °F 100% 29.90 in 0.2 mi Calm Calm - N/A Fog Fog
11:14 PM 55.4 °F 55.4 °F 100% 29.90 in 0.5 mi Calm Calm - N/A Fog Fog
11:35 PM 57.2 °F 55.4 °F 94% 29.89 in 0.2 mi Calm Calm - N/A Fog Fog
11:53 PM 55.0 °F 55.0 °F 100% 29.89 in 0.5 mi Calm Calm - N/A Fog Fog